| time (UTC) | temp F | wind direction | speed MPH | gust MPH | rain 1hr in | rain 24hr in | rain mn in | humidity % | barometer mb |
| 20260508113627 | 48 | 46 | 5.0 | 7.0 | 0.00 | 0.00 | 0.00 | 79 | 1016.2 |
| 20260508113127 | 48 | 45 | 4.0 | 7.0 | 0.00 | 0.00 | 0.00 | 79 | 1016.1 |
| 20260508112626 | 48 | 51 | 5.0 | 6.0 | 0.00 | 0.00 | 0.00 | 79 | 1016.1 |
| 20260508112126 | 48 | 38 | 5.0 | 7.0 | 0.00 | 0.00 | 0.00 | 79 | 1016.0 |
| 20260508111634 | 48 | 33 | 5.0 | 7.0 | 0.00 | 0.00 | 0.00 | 79 | 1016.1 |
| 20260508111126 | 48 | 73 | 4.0 | 7.0 | 0.00 | 0.00 | 0.00 | 79 | 1016.0 |
| 20260508110626 | 48 | 43 | 4.0 | 8.0 | 0.00 | 0.00 | 0.00 | 80 | 1016.1 |
| 20260508110126 | 48 | 32 | 5.0 | 8.0 | 0.00 | 0.00 | 0.00 | 80 | 1016.2 |
| 20260508105626 | 48 | 51 | 4.0 | 7.0 | 0.00 | 0.00 | 0.00 | 80 | 1016.6 |
| 20260508105126 | 48 | 45 | 4.0 | 7.0 | 0.00 | 0.00 | 0.00 | 80 | 1016.7 |
| 20260508104626 | 48 | 53 | 5.0 | 8.0 | 0.00 | 0.00 | 0.00 | 80 | 1016.7 |
| 20260508104126 | 48 | 51 | 4.0 | 8.0 | 0.00 | 0.00 | 0.00 | 80 | 1016.7 |
| 20260508103626 | 48 | 40 | 5.0 | 6.0 | 0.00 | 0.00 | 0.00 | 80 | 1016.8 |
| 20260508103126 | 48 | 28 | 5.0 | 6.0 | 0.00 | 0.00 | 0.00 | 80 | 1016.9 |
| 20260508102626 | 48 | 50 | 5.0 | 6.0 | 0.00 | 0.00 | 0.00 | 80 | 1016.9 |
| 20260508101625 | 49 | 49 | 5.0 | 7.0 | 0.00 | 0.00 | 0.00 | 80 | 1017.0 |
| 20260508101126 | 49 | 52 | 5.0 | 7.0 | 0.00 | 0.00 | 0.00 | 80 | 1016.9 |
| 20260508100626 | 49 | 79 | 4.0 | 8.0 | 0.00 | 0.00 | 0.00 | 80 | 1016.9 |
| 20260508100125 | 49 | 74 | 3.0 | 8.0 | 0.00 | 0.00 | 0.00 | 79 | 1017.0 |
| 20260508095625 | 49 | 34 | 5.0 | 7.0 | 0.00 | 0.00 | 0.00 | 79 | 1017.0 |
| 20260508095125 | 49 | 43 | 4.0 | 6.0 | 0.00 | 0.00 | 0.00 | 79 | 1017.0 |
| 20260508094625 | 49 | 43 | 5.0 | 7.0 | 0.00 | 0.00 | 0.00 | 79 | 1017.0 |
| 20260508093626 | 49 | 66 | 4.0 | 6.0 | 0.00 | 0.00 | 0.00 | 78 | 1016.9 |
| 20260508093126 | 49 | 67 | 6.0 | 7.0 | 0.00 | 0.00 | 0.00 | 78 | 1016.9 |
| 20260508091625 | 49 | 80 | 8.0 | 8.0 | 0.00 | 0.00 | 0.00 | 78 | 1017.1 |
| 20260508090125 | 49 | 76 | 4.0 | 9.0 | 0.00 | 0.00 | 0.00 | 79 | 1017.3 |
| 20260508085625 | 49 | 60 | 4.0 | 9.0 | 0.00 | 0.00 | 0.00 | 79 | 1017.4 |
| 20260508085124 | 49 | 19 | 5.0 | 7.0 | 0.00 | 0.00 | 0.00 | 78 | 1017.4 |
| 20260508084625 | 49 | 59 | 4.0 | 7.0 | 0.00 | 0.00 | 0.00 | 78 | 1017.6 |
| 20260508083625 | 49 | 65 | 2.0 | 8.0 | 0.00 | 0.00 | 0.00 | 78 | 1017.6 |
| 20260508083124 | 49 | 61 | 3.0 | 5.0 | 0.00 | 0.00 | 0.00 | 78 | 1017.7 |
| 20260508082625 | 49 | 45 | 3.0 | 5.0 | 0.00 | 0.00 | 0.00 | 77 | 1017.6 |
| 20260508082124 | 49 | 30 | 2.0 | 6.0 | 0.00 | 0.00 | 0.00 | 77 | 1017.7 |
| 20260508081624 | 50 | 26 | 4.0 | 6.0 | 0.00 | 0.00 | 0.00 | 76 | 1017.7 |
| 20260508081125 | 50 | 50 | 4.0 | 6.0 | 0.00 | 0.00 | 0.00 | 76 | 1017.7 |
| 20260508080625 | 50 | 61 | 2.0 | 6.0 | 0.00 | 0.00 | 0.00 | 76 | 1017.8 |
| 20260508080125 | 50 | 30 | 3.0 | 7.0 | 0.00 | 0.00 | 0.00 | 76 | 1017.7 |
| 20260508075625 | 50 | 46 | 5.0 | 7.0 | 0.00 | 0.00 | 0.00 | 75 | 1017.7 |
| 20260508075125 | 50 | 32 | 3.0 | 6.0 | 0.00 | 0.00 | 0.00 | 75 | 1017.8 |
| 20260508074624 | 50 | 64 | 3.0 | 7.0 | 0.00 | 0.00 | 0.00 | 75 | 1017.8 |
| 20260508074124 | 50 | 51 | 4.0 | 7.0 | 0.00 | 0.00 | 0.00 | 75 | 1018.0 |
| 20260508073124 | 50 | 44 | 6.0 | 6.0 | 0.00 | 0.00 | 0.00 | 75 | 1018.0 |
| 20260508072124 | 50 | 59 | 5.0 | 8.0 | 0.00 | 0.00 | 0.00 | 75 | 1018.1 |
| 20260508071624 | 50 | 38 | 4.0 | 8.0 | 0.00 | 0.00 | 0.00 | 74 | 1018.0 |
| 20260508070624 | 50 | 53 | 4.0 | 6.0 | 0.00 | 0.00 | 0.00 | 74 | 1018.0 |
| 20260508070155 | 50 | 36 | 5.0 | 7.0 | 0.00 | 0.00 | 0.00 | 74 | 1018.1 |
| 20260508065624 | 51 | 34 | 5.0 | 7.0 | 0.00 | 0.00 | 0.00 | 73 | 1018.1 |
| 20260508065124 | 51 | 46 | 4.0 | 6.0 | 0.00 | 0.00 | 0.00 | 73 | 1018.2 |
| 20260508064124 | 51 | 63 | 5.0 | 6.0 | 0.00 | 0.00 | 0.00 | 73 | 1018.3 |
| 20260508063123 | 51 | 70 | 6.0 | 7.0 | 0.00 | 0.00 | 0.00 | 72 | 1018.3 |
| 20260508062623 | 51 | 61 | 5.0 | 7.0 | 0.00 | 0.00 | 0.00 | 72 | 1018.3 |
| 20260508062123 | 52 | 29 | 5.0 | 7.0 | 0.00 | 0.00 | 0.00 | 73 | 1018.5 |
| 20260508061623 | 52 | 59 | 5.0 | 6.0 | 0.00 | 0.00 | 0.00 | 71 | 1018.5 |
| 20260508061124 | 52 | 71 | 5.0 | 6.0 | 0.00 | 0.00 | 0.00 | 72 | 1018.4 |
| 20260508060623 | 52 | 40 | 4.0 | 7.0 | 0.00 | 0.00 | 0.00 | 71 | 1018.3 |
| 20260508060153 | 52 | 69 | 4.0 | 7.0 | 0.00 | 0.00 | 0.00 | 71 | 1018.3 |
| 20260508055623 | 52 | 53 | 5.0 | 6.0 | 0.00 | 0.00 | 0.00 | 72 | 1018.3 |
| 20260508055123 | 52 | 49 | 5.0 | 6.0 | 0.00 | 0.00 | 0.00 | 71 | 1018.3 |
| 20260508054623 | 52 | 46 | 5.0 | 6.0 | 0.00 | 0.00 | 0.00 | 72 | 1018.2 |
| 20260508054123 | 52 | 36 | 4.0 | 7.0 | 0.00 | 0.00 | 0.00 | 72 | 1018.2 |
| 20260508053623 | 52 | 49 | 3.0 | 7.0 | 0.00 | 0.00 | 0.00 | 72 | 1018.3 |
| 20260508053123 | 52 | 58 | 5.0 | 6.0 | 0.00 | 0.00 | 0.00 | 73 | 1018.4 |
| 20260508052623 | 52 | 55 | 3.0 | 5.0 | 0.00 | 0.00 | 0.00 | 73 | 1018.4 |
| 20260508052122 | 52 | 60 | 3.0 | 5.0 | 0.00 | 0.00 | 0.00 | 74 | 1018.4 |
| 20260508051122 | 53 | 53 | 2.0 | 5.0 | 0.00 | 0.00 | 0.00 | 75 | 1018.6 |
| 20260508050623 | 53 | 32 | 3.0 | 4.0 | 0.00 | 0.00 | 0.00 | 76 | 1018.6 |
| 20260508050153 | 53 | 37 | 2.0 | 4.0 | 0.00 | 0.00 | 0.00 | 76 | 1018.6 |
| 20260508045623 | 53 | 249 | 2.0 | 3.0 | 0.00 | 0.00 | 0.00 | 77 | 1018.4 |
| 20260508045123 | 54 | 242 | 0.0 | 3.0 | 0.00 | 0.00 | 0.00 | 77 | 1018.4 |
| 20260508044623 | 54 | 242 | 0.0 | 0.0 | 0.00 | 0.00 | 0.00 | 77 | 1018.4 |
| 20260508044122 | 54 | 242 | 0.0 | 0.0 | 0.00 | 0.00 | 0.00 | 75 | 1018.4 |
| 20260508043652 | 55 | 242 | 0.0 | 0.0 | 0.00 | 0.00 | 0.00 | 75 | 1018.5 |
| 20260508043152 | 55 | 242 | 0.0 | 0.0 | 0.00 | 0.00 | 0.00 | 74 | 1018.4 |
| 20260508042652 | 55 | 242 | 0.0 | 0.0 | 0.00 | 0.00 | 0.00 | 72 | 1018.4 |
| 20260508042152 | 55 | 242 | 0.0 | 0.0 | 0.00 | 0.00 | 0.00 | 64 | 1018.2 |
| 20260508041652 | 55 | 242 | 0.0 | 0.0 | 0.00 | 0.00 | 0.00 | 64 | 1018.1 |
| 20260508041152 | 55 | 242 | 0.0 | 0.0 | 0.00 | 0.00 | 0.00 | 61 | 1018.0 |
| 20260508040652 | 55 | 242 | 0.0 | 0.0 | 0.00 | 0.00 | 0.00 | 65 | 1017.8 |
| 20260508040152 | 55 | 241 | 0.0 | 0.0 | 0.00 | 0.00 | 0.00 | 66 | 1017.8 |
| 20260508035652 | 55 | 241 | 0.0 | 0.0 | 0.00 | 0.00 | 0.00 | 67 | 1017.6 |
| 20260508035152 | 55 | 241 | 0.0 | 0.0 | 0.00 | 0.00 | 0.00 | 66 | 1017.5 |
| 20260508034652 | 55 | 241 | 0.0 | 0.0 | 0.00 | 0.00 | 0.00 | 68 | 1017.5 |
| 20260508034152 | 55 | 241 | 0.0 | 0.0 | 0.00 | 0.00 | 0.00 | 71 | 1017.5 |
| 20260508033651 | 55 | 240 | 0.0 | 0.0 | 0.00 | 0.00 | 0.00 | 77 | 1017.3 |
| 20260508033152 | 56 | 238 | 0.0 | 0.0 | 0.00 | 0.00 | 0.00 | 79 | 1017.4 |
| 20260508032652 | 57 | 238 | 0.0 | 0.0 | 0.00 | 0.00 | 0.00 | 80 | 1017.5 |
| 20260508032151 | 57 | 238 | 0.0 | 0.0 | 0.00 | 0.00 | 0.00 | 80 | 1017.5 |
| 20260508031651 | 58 | 238 | 0.0 | 0.0 | 0.00 | 0.00 | 0.00 | 79 | 1017.5 |
| 20260508031151 | 59 | 238 | 0.0 | 0.0 | 0.00 | 0.00 | 0.00 | 79 | 1017.8 |
| 20260508030651 | 59 | 238 | 0.0 | 0.0 | 0.00 | 0.00 | 0.00 | 79 | 1017.8 |
| 20260508030151 | 60 | 238 | 0.0 | 0.0 | 0.00 | 0.00 | 0.00 | 78 | 1017.7 |
| 20260508024651 | 61 | 234 | 0.0 | 0.0 | 0.00 | 0.00 | 0.00 | 77 | 1016.8 |
| 20260508023651 | 62 | 234 | 0.0 | 0.0 | 0.00 | 0.00 | 0.00 | 76 | 1017.1 |
| 20260508023151 | 63 | 234 | 0.0 | 0.0 | 0.00 | 0.00 | 0.00 | 75 | 1017.1 |
| 20260508022650 | 64 | 234 | 0.0 | 0.0 | 0.00 | 0.00 | 0.00 | 74 | 1017.2 |
| 20260508022150 | 64 | 234 | 0.0 | 0.0 | 0.00 | 0.00 | 0.00 | 73 | 1017.1 |
| 20260508021651 | 65 | 234 | 0.0 | 1.0 | 0.00 | 0.00 | 0.00 | 71 | 1017.1 |
| 20260508021150 | 65 | 234 | 0.0 | 5.0 | 0.00 | 0.00 | 0.00 | 72 | 1017.1 |
| 20260508020650 | 66 | 235 | 0.0 | 5.0 | 0.00 | 0.00 | 0.00 | 71 | 1017.4 |
| 20260508020150 | 66 | 245 | 2.0 | 3.0 | 0.00 | 0.00 | 0.00 | 70 | 1017.3 |
| 20260508015650 | 67 | 245 | 0.0 | 1.0 | 0.00 | 0.00 | 0.00 | 70 | 1015.7 |
| 20260508015150 | 67 | 245 | 0.0 | 2.0 | 0.00 | 0.00 | 0.00 | 69 | 1015.7 |
| 20260508014650 | 67 | 245 | 0.0 | 5.0 | 0.00 | 0.00 | 0.00 | 69 | 1015.7 |
| 20260508014150 | 68 | 245 | 1.0 | 5.0 | 0.00 | 0.00 | 0.00 | 68 | 1016.1 |
| 20260508013650 | 68 | 247 | 5.0 | 6.0 | 0.00 | 0.00 | 0.00 | 68 | 1016.1 |
| 20260508013150 | 68 | 234 | 2.0 | 7.0 | 0.00 | 0.00 | 0.00 | 67 | 1015.9 |
| 20260508012650 | 68 | 206 | 3.0 | 7.0 | 0.00 | 0.00 | 0.00 | 67 | 1015.9 |
| 20260508012150 | 69 | 242 | 4.0 | 7.0 | 0.00 | 0.00 | 0.00 | 66 | 1016.0 |
| 20260508011650 | 69 | 237 | 5.0 | 9.0 | 0.00 | 0.00 | 0.00 | 66 | 1016.0 |
| 20260508011150 | 69 | 215 | 7.0 | 9.0 | 0.00 | 0.00 | 0.00 | 65 | 1016.0 |
| 20260508010650 | 70 | 260 | 3.0 | 10.0 | 0.00 | 0.00 | 0.00 | 65 | 1016.2 |
| 20260508010150 | 70 | 255 | 8.0 | 10.0 | 0.00 | 0.00 | 0.00 | 64 | 1016.3 |
| 20260508005650 | 71 | 262 | 6.0 | 10.0 | 0.00 | 0.00 | 0.00 | 63 | 1015.9 |
| 20260508005149 | 71 | 220 | 4.0 | 10.0 | 0.00 | 0.00 | 0.00 | 62 | 1015.8 |
| 20260508004650 | 71 | 244 | 8.0 | 10.0 | 0.00 | 0.00 | 0.00 | 62 | 1015.7 |
| 20260508004150 | 72 | 229 | 4.0 | 10.0 | 0.00 | 0.00 | 0.00 | 60 | 1015.7 |
| 20260508003149 | 72 | 238 | 2.0 | 11.0 | 0.00 | 0.00 | 0.00 | 60 | 1015.7 |
| 20260508002649 | 73 | 246 | 2.0 | 11.0 | 0.00 | 0.00 | 0.00 | 59 | 1016.0 |
| 20260508001649 | 73 | 211 | 9.0 | 10.0 | 0.00 | 0.00 | 0.00 | 58 | 1015.9 |
| 20260508001150 | 73 | 246 | 2.0 | 10.0 | 0.00 | 0.00 | 0.00 | 58 | 1015.9 |
| 20260508000649 | 74 | 235 | 5.0 | 10.0 | 0.00 | 0.00 | 0.00 | 58 | 1015.9 |
| 20260508000149 | 74 | 267 | 2.0 | 10.0 | 0.00 | 0.00 | 0.00 | 57 | 1015.9 |
| 20260507235649 | 75 | 236 | 10.0 | 10.0 | 0.00 | 0.00 | 0.00 | 56 | 1016.1 |
| 20260507235149 | 76 | 235 | 6.0 | 10.0 | 0.00 | 0.00 | 0.00 | 55 | 1016.1 |
| 20260507234649 | 76 | 240 | 3.0 | 10.0 | 0.00 | 0.00 | 0.00 | 54 | 1016.0 |
| 20260507234149 | 76 | 238 | 0.0 | 11.0 | 0.00 | 0.00 | 0.00 | 55 | 1016.0 |
| 20260507233149 | 77 | 198 | 10.0 | 10.0 | 0.00 | 0.00 | 0.00 | 54 | 1016.4 |
| 20260507232149 | 77 | 235 | 5.0 | 12.0 | 0.00 | 0.00 | 0.00 | 52 | 1016.4 |
| 20260507230149 | 78 | 234 | 3.0 | 12.0 | 0.00 | 0.00 | 0.00 | 52 | 1016.6 |
| 20260507225649 | 78 | 217 | 4.0 | 14.0 | 0.00 | 0.00 | 0.00 | 52 | 1016.5 |
| 20260507225148 | 77 | 217 | 5.0 | 14.0 | 0.00 | 0.00 | 0.00 | 52 | 1016.2 |
| 20260507224648 | 77 | 215 | 3.0 | 11.0 | 0.00 | 0.00 | 0.00 | 51 | 1016.3 |
| 20260507224148 | 78 | 225 | 3.0 | 12.0 | 0.00 | 0.00 | 0.00 | 48 | 1016.5 |
| 20260507223649 | 78 | 213 | 3.0 | 12.0 | 0.00 | 0.00 | 0.00 | 49 | 1016.5 |
| 20260507222648 | 78 | 261 | 9.0 | 12.0 | 0.00 | 0.00 | 0.00 | 49 | 1016.5 |
| 20260507222148 | 78 | 325 | 0.0 | 11.0 | 0.00 | 0.00 | 0.00 | 47 | 1016.5 |
| 20260507221148 | 78 | 215 | 1.0 | 11.0 | 0.00 | 0.00 | 0.00 | 47 | 1016.5 |
| 20260507220148 | 78 | 226 | 2.0 | 9.0 | 0.00 | 0.00 | 0.00 | 46 | 1016.7 |
| 20260507215648 | 78 | 269 | 1.0 | 12.0 | 0.00 | 0.00 | 0.00 | 44 | 1016.7 |
| 20260507215148 | 79 | 245 | 5.0 | 12.0 | 0.00 | 0.00 | 0.00 | 46 | 1016.9 |
| 20260507214648 | 79 | 240 | 4.0 | 11.0 | 0.00 | 0.00 | 0.00 | 44 | 1016.9 |
| 20260507214147 | 80 | 220 | 6.0 | 12.0 | 0.00 | 0.00 | 0.00 | 45 | 1017.1 |
| 20260507213648 | 80 | 263 | 6.0 | 12.0 | 0.00 | 0.00 | 0.00 | 45 | 1017.2 |
| 20260507213147 | 80 | 230 | 3.0 | 10.0 | 0.00 | 0.00 | 0.00 | 45 | 1017.3 |
| 20260507212647 | 80 | 252 | 3.0 | 11.0 | 0.00 | 0.00 | 0.00 | 45 | 1017.2 |
| 20260507212147 | 80 | 261 | 6.0 | 11.0 | 0.00 | 0.00 | 0.00 | 45 | 1017.2 |
| 20260507211648 | 80 | 261 | 3.0 | 8.0 | 0.00 | 0.00 | 0.00 | 45 | 1017.3 |
| 20260507211147 | 79 | 231 | 6.0 | 12.0 | 0.00 | 0.00 | 0.00 | 47 | 1017.2 |
| 20260507210648 | 79 | 177 | 3.0 | 12.0 | 0.00 | 0.00 | 0.00 | 45 | 1017.1 |
| 20260507205647 | 80 | 347 | 0.0 | 11.0 | 0.00 | 0.00 | 0.00 | 44 | 1017.3 |
| 20260507205147 | 80 | 248 | 1.0 | 11.0 | 0.00 | 0.00 | 0.00 | 45 | 1017.5 |
| 20260507204647 | 80 | 65 | 2.0 | 8.0 | 0.00 | 0.00 | 0.00 | 44 | 1017.4 |
| 20260507204147 | 80 | 233 | 3.0 | 8.0 | 0.00 | 0.00 | 0.00 | 45 | 1017.6 |
| 20260507203647 | 79 | 115 | 2.0 | 7.0 | 0.00 | 0.00 | 0.00 | 47 | 1017.3 |
| 20260507203147 | 79 | 207 | 1.0 | 8.0 | 0.00 | 0.00 | 0.00 | 46 | 1017.3 |
| 20260507202647 | 79 | 248 | 3.0 | 8.0 | 0.00 | 0.00 | 0.00 | 47 | 1017.4 |
| 20260507202147 | 79 | 274 | 0.0 | 6.0 | 0.00 | 0.00 | 0.00 | 45 | 1017.4 |
| 20260507201147 | 79 | 348 | 2.0 | 12.0 | 0.00 | 0.00 | 0.00 | 45 | 1017.6 |
| 20260507200647 | 79 | 244 | 4.0 | 12.0 | 0.00 | 0.00 | 0.00 | 47 | 1017.5 |
| 20260507200147 | 79 | 212 | 5.0 | 11.0 | 0.00 | 0.00 | 0.00 | 47 | 1017.4 |
| 20260507195147 | 79 | 203 | 0.0 | 10.0 | 0.00 | 0.00 | 0.00 | 45 | 1017.9 |
| 20260507194647 | 79 | 213 | 2.0 | 10.0 | 0.00 | 0.00 | 0.00 | 46 | 1018.0 |
| 20260507194146 | 79 | 242 | 5.0 | 10.0 | 0.00 | 0.00 | 0.00 | 46 | 1018.0 |
| 20260507193646 | 78 | 273 | 1.0 | 11.0 | 0.00 | 0.00 | 0.00 | 45 | 1017.7 |
| 20260507192647 | 78 | 192 | 3.0 | 11.0 | 0.00 | 0.00 | 0.00 | 45 | 1017.8 |
| 20260507192147 | 78 | 218 | 3.0 | 10.0 | 0.00 | 0.00 | 0.00 | 44 | 1017.9 |
| 20260507191646 | 78 | 227 | 3.0 | 10.0 | 0.00 | 0.00 | 0.00 | 46 | 1017.8 |
| 20260507191146 | 78 | 245 | 4.0 | 10.0 | 0.00 | 0.00 | 0.00 | 44 | 1017.8 |
| 20260507190646 | 78 | 211 | 4.0 | 10.0 | 0.00 | 0.00 | 0.00 | 45 | 1017.9 |
| 20260507190147 | 79 | 212 | 6.0 | 9.0 | 0.00 | 0.00 | 0.00 | 46 | 1018.4 |
| 20260507184646 | 78 | 207 | 8.0 | 11.0 | 0.00 | 0.00 | 0.00 | 47 | 1018.3 |
| 20260507184146 | 78 | 231 | 3.0 | 10.0 | 0.00 | 0.00 | 0.00 | 47 | 1018.4 |
| 20260507183646 | 78 | 267 | 4.0 | 10.0 | 0.00 | 0.00 | 0.00 | 44 | 1018.3 |
| 20260507183146 | 78 | 174 | 1.0 | 9.0 | 0.00 | 0.00 | 0.00 | 42 | 1018.4 |
| 20260507182646 | 78 | 236 | 3.0 | 10.0 | 0.00 | 0.00 | 0.00 | 39 | 1018.2 |
| 20260507182146 | 79 | 55 | 1.0 | 10.0 | 0.00 | 0.00 | 0.00 | 41 | 1018.3 |
| 20260507181646 | 79 | 150 | 3.0 | 9.0 | 0.00 | 0.00 | 0.00 | 45 | 1018.4 |
| 20260507180645 | 78 | 234 | 3.0 | 12.0 | 0.00 | 0.00 | 0.00 | 45 | 1018.3 |
| 20260507180145 | 79 | 233 | 10.0 | 12.0 | 0.00 | 0.00 | 0.00 | 44 | 1018.4 |
| 20260507175645 | 78 | 238 | 6.0 | 10.0 | 0.00 | 0.00 | 0.00 | 46 | 1018.5 |
| 20260507175146 | 78 | 190 | 3.0 | 11.0 | 0.00 | 0.00 | 0.00 | 47 | 1018.6 |
| 20260507174646 | 77 | 213 | 2.0 | 11.0 | 0.00 | 0.00 | 0.00 | 47 | 1018.6 |
| 20260507173145 | 77 | 244 | 8.0 | 10.0 | 0.00 | 0.00 | 0.00 | 46 | 1018.6 |
| 20260507172146 | 77 | 220 | 7.0 | 9.0 | 0.00 | 0.00 | 0.00 | 45 | 1018.7 |
| 20260507171645 | 76 | 232 | 2.0 | 8.0 | 0.00 | 0.00 | 0.00 | 47 | 1018.4 |
| 20260507171145 | 76 | 186 | 2.0 | 5.0 | 0.00 | 0.00 | 0.00 | 44 | 1018.4 |
| 20260507170645 | 75 | 190 | 1.0 | 5.0 | 0.00 | 0.00 | 0.00 | 47 | 1018.6 |
| 20260507170145 | 75 | 234 | 2.0 | 7.0 | 0.00 | 0.00 | 0.00 | 46 | 1018.5 |
| 20260507165645 | 75 | 202 | 1.0 | 7.0 | 0.00 | 0.00 | 0.00 | 45 | 1018.5 |
| 20260507165145 | 75 | 229 | 0.0 | 6.0 | 0.00 | 0.00 | 0.00 | 48 | 1018.7 |
| 20260507164645 | 75 | 229 | 2.0 | 6.0 | 0.00 | 0.00 | 0.00 | 47 | 1018.8 |
| 20260507164145 | 74 | 182 | 2.0 | 8.0 | 0.00 | 0.00 | 0.00 | 46 | 1018.7 |
| 20260507163145 | 74 | 200 | 2.0 | 8.0 | 0.00 | 0.00 | 0.00 | 46 | 1018.8 |
| 20260507162644 | 74 | 227 | 2.0 | 8.0 | 0.00 | 0.00 | 0.00 | 46 | 1018.7 |
| 20260507162145 | 74 | 231 | 6.0 | 6.0 | 0.00 | 0.00 | 0.00 | 46 | 1018.7 |
| 20260507161644 | 74 | 194 | 0.0 | 6.0 | 0.00 | 0.00 | 0.00 | 46 | 1018.7 |
| 20260507161144 | 74 | 244 | 0.0 | 6.0 | 0.00 | 0.00 | 0.00 | 43 | 1018.7 |
| 20260507160645 | 73 | 227 | 0.0 | 6.0 | 0.00 | 0.00 | 0.00 | 47 | 1018.5 |
| 20260507160145 | 73 | 248 | 4.0 | 5.0 | 0.00 | 0.00 | 0.00 | 46 | 1018.6 |
| 20260507155644 | 72 | 215 | 1.0 | 4.0 | 0.00 | 0.00 | 0.00 | 46 | 1018.7 |
| 20260507155144 | 72 | 151 | 1.0 | 2.0 | 0.00 | 0.00 | 0.00 | 47 | 1018.7 |
| 20260507154644 | 71 | 137 | 0.0 | 1.0 | 0.00 | 0.00 | 0.00 | 49 | 1018.6 |
| 20260507154144 | 71 | 137 | 0.0 | 3.0 | 0.00 | 0.00 | 0.00 | 50 | 1018.7 |
| 20260507153644 | 70 | 136 | 0.0 | 3.0 | 0.00 | 0.00 | 0.00 | 51 | 1018.7 |
| 20260507152644 | 68 | 129 | 0.0 | 2.0 | 0.00 | 0.00 | 0.00 | 52 | 1018.3 |
| 20260507152144 | 67 | 71 | 0.0 | 0.0 | 0.00 | 0.00 | 0.00 | 51 | 1018.1 |
| 20260507151644 | 66 | 71 | 0.0 | 0.0 | 0.00 | 0.00 | 0.00 | 62 | 1018.2 |
| 20260507151144 | 66 | 71 | 0.0 | 0.0 | 0.00 | 0.00 | 0.00 | 62 | 1018.2 |
| 20260507150644 | 65 | 71 | 0.0 | 0.0 | 0.00 | 0.00 | 0.00 | 72 | 1018.0 |
| 20260507145144 | 61 | 71 | 0.0 | 3.0 | 0.00 | 0.00 | 0.00 | 69 | 1018.1 |
| 20260507144644 | 60 | 74 | 1.0 | 5.0 | 0.00 | 0.00 | 0.00 | 68 | 1018.0 |
| 20260507144143 | 59 | 57 | 1.0 | 5.0 | 0.00 | 0.00 | 0.00 | 71 | 1017.9 |
| 20260507143644 | 58 | 76 | 3.0 | 5.0 | 0.00 | 0.00 | 0.00 | 72 | 1017.8 |
| 20260507143143 | 57 | 71 | 3.0 | 5.0 | 0.00 | 0.00 | 0.00 | 75 | 1017.6 |
| 20260507142643 | 56 | 65 | 3.0 | 5.0 | 0.00 | 0.00 | 0.00 | 76 | 1017.6 |
| 20260507142143 | 54 | 46 | 2.0 | 6.0 | 0.00 | 0.00 | 0.00 | 78 | 1017.3 |
| 20260507141643 | 53 | 67 | 3.0 | 6.0 | 0.00 | 0.00 | 0.00 | 77 | 1017.1 |
| 20260507141143 | 52 | 61 | 5.0 | 8.0 | 0.00 | 0.00 | 0.00 | 79 | 1017.1 |
| 20260507140143 | 50 | 34 | 5.0 | 6.0 | 0.00 | 0.00 | 0.00 | 79 | 1016.8 |
| 20260507135643 | 49 | 61 | 6.0 | 8.0 | 0.00 | 0.00 | 0.00 | 80 | 1017.1 |
| 20260507135143 | 49 | 62 | 4.0 | 8.0 | 0.00 | 0.00 | 0.00 | 81 | 1017.1 |
| 20260507134643 | 48 | 48 | 4.0 | 7.0 | 0.00 | 0.00 | 0.00 | 82 | 1017.2 |
| 20260507134142 | 47 | 53 | 4.0 | 7.0 | 0.00 | 0.00 | 0.00 | 83 | 1016.9 |
| 20260507133643 | 46 | 44 | 6.0 | 7.0 | 0.00 | 0.00 | 0.00 | 83 | 1016.9 |
| 20260507133143 | 46 | 65 | 5.0 | 6.0 | 0.00 | 0.00 | 0.00 | 82 | 1016.9 |
| 20260507132643 | 46 | 50 | 6.0 | 7.0 | 0.00 | 0.00 | 0.00 | 82 | 1016.9 |
| 20260507132143 | 46 | 32 | 4.0 | 9.0 | 0.00 | 0.00 | 0.00 | 82 | 1016.8 |
| 20260507131643 | 46 | 56 | 5.0 | 9.0 | 0.00 | 0.00 | 0.00 | 82 | 1016.9 |
| 20260507131143 | 45 | 40 | 5.0 | 6.0 | 0.00 | 0.00 | 0.00 | 82 | 1016.5 |
| 20260507130643 | 45 | 65 | 4.0 | 7.0 | 0.00 | 0.00 | 0.00 | 82 | 1016.3 |
| 20260507130143 | 45 | 65 | 4.0 | 7.0 | 0.00 | 0.00 | 0.00 | 82 | 1016.3 |
| 20260507125643 | 45 | 57 | 5.0 | 7.0 | 0.00 | 0.00 | 0.00 | 83 | 1016.8 |
| 20260507125143 | 45 | 46 | 6.0 | 8.0 | 0.00 | 0.00 | 0.00 | 83 | 1016.8 |
| 20260507124642 | 45 | 43 | 4.0 | 8.0 | 0.00 | 0.00 | 0.00 | 83 | 1016.8 |
| 20260507124142 | 45 | 56 | 4.0 | 6.0 | 0.00 | 0.00 | 0.00 | 83 | 1016.8 |
| 20260507123642 | 45 | 57 | 4.0 | 5.0 | 0.00 | 0.00 | 0.00 | 83 | 1016.8 |
| 20260507123142 | 45 | 65 | 4.0 | 7.0 | 0.00 | 0.00 | 0.00 | 83 | 1016.8 |
| 20260507122642 | 46 | 65 | 5.0 | 7.0 | 0.00 | 0.00 | 0.00 | 83 | 1017.0 |
| 20260507122142 | 46 | 60 | 4.0 | 7.0 | 0.00 | 0.00 | 0.00 | 83 | 1017.0 |
| 20260507121142 | 45 | 38 | 4.0 | 6.0 | 0.00 | 0.00 | 0.00 | 83 | 1016.8 |
| 20260507120642 | 45 | 57 | 3.0 | 5.0 | 0.00 | 0.00 | 0.00 | 84 | 1016.8 |
| 20260507120142 | 45 | 63 | 4.0 | 7.0 | 0.00 | 0.00 | 0.00 | 84 | 1016.7 |
| 20260507115141 | 45 | 57 | 4.0 | 8.0 | 0.00 | 0.00 | 0.00 | 84 | 1017.2 |
| 20260507114642 | 45 | 62 | 5.0 | 8.0 | 0.00 | 0.00 | 0.00 | 84 | 1017.1 |
| 20260507114141 | 45 | 48 | 6.0 | 8.0 | 0.00 | 0.00 | 0.00 | 84 | 1017.2 |